Погода в Маунт-Гамбир

Австралия     37°49′13″S   140°46′26″E
темп.,
°C
ветер,
м/с
пор.,
м/с
влажн.,
%
обл.,
%
осадки,
мм/ч
давл.,
гПа
погр.,
м
24 апреля, сб
сб2400:30+11зсз1587100 0.1 1022137
03:30+12з1783100 0.2 1022276
06:30+12зсз1786100 0.1 1023231
09:30+15з367417 0.4 1024913
12:30+16зюз466554 1.1 10241296
15:30+16юз35675 1.5 10241049
18:30+11юз12906 0.1 102631
21:30+10з1195100 0.1 102710
25 апреля, вс
вс2500:30+10сз119295 0.0 102613
03:30+11зсз1188100 0.0 102616
06:30+12зсз0085100 0.1 102714
09:30+15юз237034 0.3 1028989
12:30+17юз345241 0.2 10271607
15:30+16юз345814 0.2 10271234
18:30+10юз11903 0.0 102812
21:30+10з11950 0.0 102910
26 апреля, пн
пн2600:30+10зсз119494 0.0 102826
03:30+12зсз1188100 0.0 102724
06:30+13юз1184100 0.1 102815
09:30+14юз1476100 0.2 1030394
12:30+16юз2360100 0.1 10291273
15:30+16юз2360100 0.2 1028921
18:30+13ююз137186 0.0 103093
21:30+13ю117698 0.0 103025
27 апреля, вт
вт2700:30+13ю117292 0.0 102925
03:30+11юв117344 0.0 102914
06:30+9св11840 0.0 103013
09:30+16всв11550 0.0 1031428
12:30+19юв114428 0.0 10291513
15:30+17ююв2252100 0.0 1028978
18:30+11ююв2585100 0.0 1029106
21:30+9вюв158820 0.0 1029107
28 апреля, ср
ср2800:30+8в11910 0.0 102828
03:30+8в11904 0.0 102615
06:30+7в019256 0.0 102710
09:30+15вюв01615 0.0 1027327
12:30+19ююз1145100 0.0 10261197
15:30+17ю325380 0.0 1025884
18:30+10ю239011 0.0 102774
21:30+9юв119571 0.0 102818